Location: Corcelles
(46.1547°N, 4.7234°E)
Time: 10:35:15
(UTC+00:00)

CZ-4C R/B - Pass Details

Date: 14 July 2020
Orbit: 463 x 636 km, 98.0° (Epoch: 05 August)

Event Time Altitude Azimuth Distance (km) Brightness Sun altitude
Exits shadow 01:11:25 38° 142° (SE) 810 3.9 -19.6°
Maximum altitude 01:12:41 66° 74° (ENE) 571 3.4 -19.5°
Drops below altitude 10° 01:16:21 10° 352° (N) 1,715 6.7 -19.3°
Sets 01:18:23 0° 350° (N) 2,580 7.7 -19.1°
